Temp
64 62 61 63 64 63 63 64 67 68 68 67 64 61 60 59 58 57 56 54 54 52
61 63 64 64 65 64 65 65 66 67 67 63 61 60 59 57 56 55 55 53 52 51
61 61 63 64 64 64 64 65 66 66 62 59 59 57 56 54 54 53 52 51 51 50
60 61 62 62 63 64 63 63 60 59 59 58 56 56 54 53 53 52 51 51 50 48
62 62 61 63 63 61 59 59 59 58 57 57 55 55 54 53 53 51 50 49 48 48
61 61 60 60 61 59 58 58 59 57 55 54 53 53 52 52 50 50 49 49 48 48
59 59 58 58 58 58 58 56 55 55 54 53 52 51 50 50 49 49 50 50 50 50
58 59 57 56 55 55 53 52 52 51 50 50 50 50 49 49 49 50 51 51 52 52
57 57 55 54 53 52 52 51 50 49 48 47 47 47 48 49 50 50 49 49 50 51
56 54 52 52 51 49 49 48 47 47 46 45 45 45 46 47 46 46 46 47 48 50
53 51 50 50 48 48 48 47 46 45 44 43 44 44 45 46 45 44 44 47 49 48
51 50 49 47 46 45 44 43 43 43 43 43 43 44 44 45 44 44 45 47 48 48
51 48 46 45 44 43 43 43 43 43 43 44 43 43 44 46 46 45 45 45 45 45
47 45 44 44 43 43 42 42 42 41 42 42 43 43 43 44 46 46 45 45 44 46
MSLP
1005.28 1005.24 1005.13 1005.22 1005.22 1004.86 1004.76 1004.66 1004.49 1004.42 1004.32 1004.36 1005.01 1005.47 1005.79 1006.37 1006.87 1007.01 1007.53 1008.15 1008.81 1009.14
1005.52 1005.40 1005.37 1005.17 1004.90 1004.83 1004.58 1004.69 1004.57 1004.35 1004.19 1004.47 1005.05 1005.34 1006.03 1006.57 1007.14 1007.45 1007.90 1008.11 1008.64 1009.45
1005.75 1005.50 1005.12 1004.89 1004.78 1004.73 1004.81 1004.78 1004.64 1004.37 1004.51 1004.79 1005.24 1005.61 1006.01 1006.66 1007.24 1007.44 1008.30 1008.80 1009.17 1009.63
1006.00 1005.86 1005.65 1005.47 1005.32 1005.20 1005.16 1005.03 1005.05 1004.95 1004.99 1005.09 1005.47 1006.05 1006.31 1006.92 1006.99 1007.57 1008.46 1009.45 1010.00 1010.39
1006.58 1006.33 1006.18 1005.88 1005.65 1005.56 1005.67 1005.59 1005.54 1005.59 1005.58 1005.67 1005.98 1006.22 1006.64 1006.96 1007.45 1008.06 1009.01 1009.49 1010.19 1010.73
1007.19 1006.85 1006.73 1006.47 1006.14 1005.98 1006.14 1006.05 1006.07 1006.14 1006.14 1006.36 1006.65 1006.93 1007.23 1007.43 1007.92 1009.01 1009.67 1009.58 1010.47 1011.00
1007.36 1007.21 1006.99 1006.87 1006.58 1006.37 1006.62 1006.66 1006.91 1006.95 1006.98 1007.20 1007.21 1007.60 1007.98 1008.45 1008.89 1009.41 1009.97 1010.21 1010.86 1011.67
1007.58 1007.16 1007.37 1007.19 1007.24 1007.14 1007.39 1007.62 1007.85 1008.01 1008.17 1008.19 1008.61 1008.85 1008.94 1008.98 1009.67 1010.00 1010.48 1011.30 1011.38 1011.60
1007.91 1007.68 1007.54 1007.73 1007.90 1007.88 1008.27 1008.53 1008.76 1008.96 1009.17 1009.56 1009.69 1010.33 1010.32 1010.31 1010.61 1011.26 1011.27 1011.88 1012.22 1012.34
1008.29 1008.24 1008.12 1008.49 1008.56 1008.81 1009.31 1009.52 1009.92 1010.33 1010.43 1010.82 1011.10 1011.54 1011.67 1011.23 1012.08 1012.49 1012.22 1012.48 1012.94 1012.96
1008.76 1008.81 1008.84 1009.32 1009.50 1009.77 1010.22 1010.67 1011.03 1011.66 1012.03 1012.24 1012.72 1012.53 1012.56 1012.71 1012.99 1013.46 1013.17 1013.47 1013.62 1013.85
1009.31 1009.35 1009.66 1010.11 1010.49 1010.94 1011.34 1011.87 1012.42 1013.10 1013.47 1013.68 1013.97 1014.01 1013.63 1013.82 1014.09 1014.32 1014.42 1014.64 1014.78 1014.73
1009.79 1010.21 1010.54 1011.19 1011.54 1012.06 1012.57 1013.21 1013.70 1014.32 1014.53 1014.90 1014.93 1015.25 1015.09 1015.17 1015.17 1015.26 1015.82 1015.97 1015.62 1015.85
1010.66 1011.09 1011.50 1011.94 1012.50 1013.08 1013.63 1014.18 1014.74 1015.33 1015.88 1015.71 1015.65 1015.79 1015.76 1016.14 1015.64 1015.89 1016.81 1016.48 1016.36 1016.84
Wind_Speed
4 3 4 5 4 4 4 4 4 6 7 5 5 5 7 5 5 9 9 12 8 7
5 3 4 6 5 4 4 2 5 8 6 4 6 8 9 7 9 8 8 10 10 8
5 5 4 4 5 4 4 5 7 5 4 7 7 9 10 9 9 12 8 6 9 9
9 9 7 5 5 5 5 4 4 4 4 7 9 9 10 10 12 14 11 8 9 10
8 10 8 7 6 4 4 5 5 5 7 8 7 10 10 13 11 12 12 12 11 10
8 8 7 6 3 5 4 4 4 6 8 10 10 9 10 10 13 10 9 12 10 9
4 5 4 4 4 5 4 6 6 6 8 7 9 11 11 11 12 12 9 9 9 8
2 5 4 6 6 8 8 7 8 9 9 10 8 6 10 11 10 11 11 10 11 11
3 4 6 6 6 8 8 8 8 9 10 10 9 15 16 10 10 8 11 10 11 11
2 5 7 6 8 9 9 10 11 10 12 13 12 17 15 18 8 7 8 9 8 9
3 5 8 8 10 10 10 11 11 12 12 12 12 17 17 17 9 8 8 6 8 11
3 7 9 10 10 10 12 13 14 13 14 13 11 16 14 11 8 9 10 8 8 9
6 8 11 11 12 12 13 14 13 14 13 16 10 11 10 7 5 10 8 7 10 12
11 11 12 13 12 13 14 14 14 13 9 8 5 6 12 10 9 8 6 6 7 6
Wind_Direction
256 231 220 209 231 238 231 240 258 253 237 200 140 128 122 120 120 131 126 120 109 111
15 336 264 251 249 271 287 308 298 275 230 148 136 126 116 114 111 104 107 112 111 103
347 334 284 249 254 283 327 321 314 307 108 111 118 125 125 123 118 110 97 88 103 104
1 354 351 0 1 346 346 356 34 59 95 122 124 124 120 118 122 112 106 102 95 81
5 356 350 342 337 23 47 49 84 98 103 107 109 124 129 129 118 115 119 111 106 109
2 355 353 354 17 69 74 89 91 109 112 110 108 105 107 109 111 103 110 109 114 122
32 13 17 15 27 63 63 73 80 82 93 95 105 103 100 109 109 114 114 110 104 111
51 92 50 49 47 67 70 72 77 79 77 85 78 92 109 110 99 108 102 106 106 96
70 84 80 73 75 75 76 73 72 74 77 75 77 58 69 75 94 97 106 96 95 93
90 88 82 81 79 75 75 80 73 70 77 75 67 54 51 65 60 74 80 88 96 90
87 96 84 84 82 82 82 77 77 70 66 70 66 59 57 60 54 52 58 73 96 92
128 104 94 86 82 78 80 74 72 70 66 62 54 50 47 56 61 60 64 59 74 95
91 90 88 87 84 85 81 81 80 79 70 60 48 30 42 54 75 77 64 63 67 66
87 95 96 93 90 92 90 87 82 75 64 59 50 48 64 57 72 72 76 70 64 63